Location: Cucq
(50.4773°N, 1.6202°E)
Time: 05:05:28
(UTC+00:00)

AQUA - Pass Details

Date: 07 August 2020
Orbit: 700 x 704 km, 98.2° (Epoch: 19 September)

Event Time Altitude Azimuth Distance (km) Brightness Sun altitude
Rises 02:14:44 0° 12° (NNE) 3,106 8.5 -16.9°
Reaches altitude 10° 02:17:01 10° 11° (N) 2,183 7.4 -16.7°
Maximum altitude 02:21:46 72° 288° (WNW) 744 3.8 -16.2°
Enters shadow 02:24:19 27° 209° (SSW) 1,327 4.6 -16.0°
